Starlink 30994

operational
NORAD ID: 58483 Int'l Des: 2023-186 Owner: SPXS Country: US Constellation: starlink
LEOCIRCULAR

Über Starlink 30994

Beschreibung wird geladen...

Live-Position

3D-Globus wird geladen...

Nächste Überflüge

Höhenverlauf

Altitude vs Time

uPlot chart will show altitude changes over time

Zweizeiliger Elementsatz

1 58483U 23186L 25307.22885645 .00003709 00000-0 14423-3 0 9991
2 58483 43.0033 254.3502 0001179 280.3700 79.7019 15.27584374108460
Epoch: 3. Nov. 2025 • Age: 27 hours

Aktueller Status

Höhe 484.3 km
Geschwindigkeit 7.62 km/s
Subsatellitenpunkt -10.47°S, 71.36°E
Startdatum 3. Dez. 2023
Alter 1.9 years
Typ internet

Technische Details

Klassifizierung Payload
Masse 730.00 kg
Trockenmasse 700.00 kg
Gesamtmasse 730.00 kg
Länge 0.30 m
Durchmesser 4.10 m
Spannweite 29.00 m
Form Box + pan
Hersteller SPXS
Bus-Typ Starlink V2M
Phasenstatus In Orbit
Besitzer/Staat SPXS/US

Große Konstellationen

Loading constellations...